Time,TemperatureF,DewpointF,PressureIn,WindDirection,WindDirectionDegrees,WindSpeedMPH,WindSpeedGustMPH,Humidity,HourlyPrecipIn,Conditions,Clouds,dailyrainin,SoftwareType,DateUTC
2013-04-16 00:10:00,44.1,-50.6,29.63,NE,45,11.4,-999.0,1,-99.99,,,0.00,Acu-Link.com,2013-04-16 07:10:00,
2013-04-16 00:26:00,43.9,-50.7,29.62,South,180,6.3,-999.0,1,-99.99,,,0.01,Acu-Link.com,2013-04-16 07:26:00,
2013-04-16 00:41:00,43.7,-50.8,29.63,SW,225,3.7,-999.0,1,-99.99,,,0.01,Acu-Link.com,2013-04-16 07:41:00,
2013-04-16 00:56:00,43.3,-51.1,29.64,South,180,10.9,-999.0,1,-99.99,,,0.01,Acu-Link.com,2013-04-16 07:56:00,
2013-04-16 01:26:00,42.4,-51.6,29.62,SSE,157,2.2,-999.0,1,-99.99,,,0.01,Acu-Link.com,2013-04-16 08:26:00,
2013-04-16 01:42:00,42.8,-51.4,29.63,SSW,202,8.3,-999.0,1,-99.99,,,0.01,Acu-Link.com,2013-04-16 08:42:00,
2013-04-16 01:57:00,42.6,-51.5,29.63,South,180,5.8,-999.0,1,-99.99,,,0.01,Acu-Link.com,2013-04-16 08:57:00,
2013-04-16 02:12:00,42.1,-51.8,29.61,ESE,112,8.3,-999.0,1,-99.99,,,0.01,Acu-Link.com,2013-04-16 09:12:00,
2013-04-16 02:27:00,42.4,-51.6,29.62,SE,135,5.8,-999.0,1,-99.99,,,0.01,Acu-Link.com,2013-04-16 09:27:00,
2013-04-16 02:42:00,42.1,-51.8,29.62,West,270,7.8,-999.0,1,-99.99,,,0.01,Acu-Link.com,2013-04-16 09:42:00,
2013-04-16 02:57:00,41.9,-51.9,29.61,SSW,202,7.3,-999.0,1,-99.99,,,0.01,Acu-Link.com,2013-04-16 09:57:00,
2013-04-16 03:12:00,41.4,-52.2,29.62,WSW,247,4.7,-999.0,1,-99.99,,,0.01,Acu-Link.com,2013-04-16 10:12:00,
2013-04-16 03:27:00,40.8,-52.6,29.63,West,270,5.8,-999.0,1,-99.99,,,0.01,Acu-Link.com,2013-04-16 10:27:00,
2013-04-16 03:42:00,40.8,-52.6,29.63,West,270,2.7,-999.0,1,-99.99,,,0.01,Acu-Link.com,2013-04-16 10:42:00,
2013-04-16 03:58:00,40.8,-52.6,29.62,West,270,3.2,-999.0,1,-99.99,,,0.01,Acu-Link.com,2013-04-16 10:58:00,
2013-04-16 04:13:00,40.3,-52.9,29.62,North,0,5.3,-999.0,1,-99.99,,,0.01,Acu-Link.com,2013-04-16 11:13:00,
2013-04-16 04:28:00,39.9,-53.2,29.62,SE,135,7.3,-999.0,1,-99.99,,,0.01,Acu-Link.com,2013-04-16 11:28:00,
2013-04-16 04:43:00,40.1,-53.0,29.61,SW,225,6.8,-999.0,1,-99.99,,,0.01,Acu-Link.com,2013-04-16 11:43:00,
2013-04-16 04:58:00,39.9,-53.2,29.62,West,270,7.8,-999.0,1,-99.99,,,0.01,Acu-Link.com,2013-04-16 11:58:00,
2013-04-16 05:13:00,39.4,-53.5,29.64,SSW,202,3.2,-999.0,1,-99.99,,,0.01,Acu-Link.com,2013-04-16 12:13:00,
2013-04-16 05:28:00,39.7,-53.3,29.62,West,270,1.7,-999.0,1,-99.99,,,0.01,Acu-Link.com,2013-04-16 12:28:00,
2013-04-16 05:43:00,39.2,-53.6,29.64,NNW,337,0.0,-999.0,1,-99.99,,,0.01,Acu-Link.com,2013-04-16 12:43:00,
2013-04-16 05:58:00,39.4,-53.5,29.64,WNW,292,1.1,-999.0,1,-99.99,,,0.01,Acu-Link.com,2013-04-16 12:58:00,
2013-04-16 06:14:00,39.6,-53.3,29.64,SSW,202,2.7,-999.0,1,-99.99,,,0.01,Acu-Link.com,2013-04-16 13:14:00,
2013-04-16 06:29:00,39.6,-53.3,29.66,SSE,157,1.7,-999.0,1,-99.99,,,0.01,Acu-Link.com,2013-04-16 13:29:00,
2013-04-16 06:44:00,39.4,-53.5,29.64,SSE,157,0.0,-999.0,1,-99.99,,,0.01,Acu-Link.com,2013-04-16 13:44:00,
2013-04-16 06:59:00,39.6,-53.3,29.66,WNW,292,0.0,-999.0,1,-99.99,,,0.01,Acu-Link.com,2013-04-16 13:59:00,
2013-04-16 07:14:00,39.6,-53.3,29.67,SSW,202,0.0,-999.0,1,-99.99,,,0.01,Acu-Link.com,2013-04-16 14:14:00,
2013-04-16 07:29:00,37.0,-55.0,29.68,NNE,22,2.2,-999.0,1,-99.99,,,0.01,Acu-Link.com,2013-04-16 14:29:00,
2013-04-16 07:44:00,36.7,-55.1,29.70,North,0,3.2,-999.0,1,-99.99,,,0.01,Acu-Link.com,2013-04-16 14:44:00,
2013-04-16 07:59:00,37.2,-54.8,29.70,ESE,112,0.0,-999.0,1,-99.99,,,0.01,Acu-Link.com,2013-04-16 14:59:00,
2013-04-16 08:14:00,36.9,-55.0,29.70,NE,45,2.2,-999.0,1,-99.99,,,0.01,Acu-Link.com,2013-04-16 15:14:00,
2013-04-16 08:29:00,37.2,-54.8,29.70,WSW,247,0.0,-999.0,1,-99.99,,,0.01,Acu-Link.com,2013-04-16 15:29:00,
2013-04-16 08:45:00,37.4,-54.7,29.71,SW,225,0.0,-999.0,1,-99.99,,,0.01,Acu-Link.com,2013-04-16 15:45:00,
2013-04-16 09:00:00,37.4,-54.7,29.72,South,180,0.0,-999.0,1,-99.99,,,0.01,Acu-Link.com,2013-04-16 16:00:00,
2013-04-16 09:15:00,39.0,-53.7,29.71,NNE,22,0.0,-999.0,1,-99.99,,,0.01,Acu-Link.com,2013-04-16 16:15:00,
2013-04-16 09:30:00,39.6,-53.3,29.72,SSW,202,0.0,-999.0,1,-99.99,,,0.01,Acu-Link.com,2013-04-16 16:30:00,
2013-04-16 09:45:00,40.5,-52.8,29.72,SSE,157,0.0,-999.0,1,-99.99,,,0.01,Acu-Link.com,2013-04-16 16:45:00,
2013-04-16 10:00:00,40.6,-52.7,29.73,SSW,202,3.2,-999.0,1,-99.99,,,0.01,Acu-Link.com,2013-04-16 17:00:00,
2013-04-16 10:15:00,41.2,40.7,29.73,ESE,112,3.2,-999.0,98,-99.99,,,0.01,Acu-Link.com,2013-04-16 17:15:00,
2013-04-16 10:30:00,43.5,43.0,29.72,WNW,292,4.7,-999.0,98,-99.99,,,0.01,Acu-Link.com,2013-04-16 17:30:00,
2013-04-16 10:45:00,43.9,43.4,29.73,SE,135,4.7,-999.0,98,-99.99,,,0.01,Acu-Link.com,2013-04-16 17:45:00,
2013-04-16 11:01:00,47.1,38.5,29.75,SW,225,4.2,-999.0,72,-99.99,,,0.01,Acu-Link.com,2013-04-16 18:01:00,
2013-04-16 11:16:00,47.8,28.0,29.74,West,270,5.3,-999.0,46,-99.99,,,0.01,Acu-Link.com,2013-04-16 18:16:00,
2013-04-16 12:01:00,51.3,23.2,29.73,West,270,3.7,-999.0,33,-99.99,,,0.01,Acu-Link.com,2013-04-16 19:01:00,
2013-04-16 12:16:00,53.6,21.3,29.73,SSW,202,5.3,-999.0,28,-99.99,,,0.01,Acu-Link.com,2013-04-16 19:16:00,
2013-04-16 12:31:00,54.3,22.7,29.73,South,180,2.2,-999.0,29,-99.99,,,0.01,Acu-Link.com,2013-04-16 19:31:00,
2013-04-16 12:46:00,53.2,20.1,29.73,SSW,202,3.7,-999.0,27,-99.99,,,0.01,Acu-Link.com,2013-04-16 19:46:00,
2013-04-16 13:01:00,55.0,20.8,29.73,SSW,202,4.2,-999.0,26,-99.99,,,0.01,Acu-Link.com,2013-04-16 20:01:00,
2013-04-16 13:17:00,57.0,13.9,29.73,WNW,292,4.7,-999.0,18,-99.99,,,0.01,Acu-Link.com,2013-04-16 20:17:00,
2013-04-16 13:32:00,56.5,17.1,29.72,South,180,3.7,-999.0,21,-99.99,,,0.01,Acu-Link.com,2013-04-16 20:32:00,
2013-04-16 13:47:00,57.2,14.1,29.72,SW,225,2.7,-999.0,18,-99.99,,,0.01,Acu-Link.com,2013-04-16 20:47:00,
2013-04-16 14:02:00,57.4,18.9,29.72,WNW,292,2.2,-999.0,22,-99.99,,,0.01,Acu-Link.com,2013-04-16 21:02:00,
2013-04-16 14:17:00,56.7,34.5,29.72,South,180,6.8,-999.0,43,-99.99,,,0.01,Acu-Link.com,2013-04-16 21:17:00,
2013-04-16 14:32:00,56.3,34.7,29.72,SW,225,5.8,-999.0,44,-99.99,,,0.01,Acu-Link.com,2013-04-16 21:32:00,
2013-04-16 14:48:00,51.8,37.1,29.73,WNW,292,3.2,-999.0,57,-99.99,,,0.01,Acu-Link.com,2013-04-16 21:48:00,
2013-04-16 15:03:00,51.3,36.6,29.73,SW,225,3.2,-999.0,57,-99.99,,,0.01,Acu-Link.com,2013-04-16 22:03:00,
2013-04-16 15:18:00,48.2,37.0,29.74,SSE,157,3.2,-999.0,65,-99.99,,,0.01,Acu-Link.com,2013-04-16 22:18:00,
2013-04-16 15:33:00,47.1,36.3,29.72,WNW,292,0.0,-999.0,66,-99.99,,,0.01,Acu-Link.com,2013-04-16 22:33:00,
2013-04-16 15:48:00,46.0,36.8,29.73,SSE,157,2.7,-999.0,70,-99.99,,,0.01,Acu-Link.com,2013-04-16 22:48:00,
2013-04-16 16:03:00,46.9,36.9,29.72,SSE,157,2.7,-999.0,68,-99.99,,,0.01,Acu-Link.com,2013-04-16 23:03:00,
2013-04-16 16:18:00,48.6,39.3,29.73,SE,135,2.7,-999.0,70,-99.99,,,0.01,Acu-Link.com,2013-04-16 23:18:00,
2013-04-16 16:33:00,50.4,39.5,29.73,SSW,202,6.8,-999.0,66,-99.99,,,0.01,Acu-Link.com,2013-04-16 23:33:00,
2013-04-16 16:48:00,48.2,38.9,29.74,WNW,292,2.7,-999.0,70,-99.99,,,0.01,Acu-Link.com,2013-04-16 23:48:00,
2013-04-16 17:04:00,46.2,39.1,29.73,West,270,2.7,-999.0,76,-99.99,,,0.01,Acu-Link.com,2013-04-17 00:04:00,
2013-04-16 17:19:00,47.7,39.1,29.73,NNW,337,1.1,-999.0,72,-99.99,,,0.01,Acu-Link.com,2013-04-17 00:19:00,
2013-04-16 17:34:00,46.6,38.4,29.74,West,270,3.7,-999.0,73,-99.99,,,0.01,Acu-Link.com,2013-04-17 00:34:00,
2013-04-16 17:49:00,45.7,37.9,29.73,WNW,292,2.2,-999.0,74,-99.99,,,0.01,Acu-Link.com,2013-04-17 00:49:00,
2013-04-16 18:04:00,44.8,39.3,29.74,SW,225,0.0,-999.0,81,-99.99,,,0.01,Acu-Link.com,2013-04-17 01:04:00,
2013-04-16 18:19:00,42.4,25.6,29.74,NW,315,1.7,-999.0,51,-99.99,,,0.01,Acu-Link.com,2013-04-17 01:19:00,
2013-04-16 18:34:00,44.4,19.1,29.75,North,0,7.8,-999.0,36,-99.99,,,0.01,Acu-Link.com,2013-04-17 01:34:00,
2013-04-16 18:49:00,42.8,17.7,29.74,SSE,157,3.2,-999.0,36,-99.99,,,0.01,Acu-Link.com,2013-04-17 01:49:00,
2013-04-16 19:04:00,40.8,17.2,29.74,SW,225,1.1,-999.0,38,-99.99,,,0.01,Acu-Link.com,2013-04-17 02:04:00,
2013-04-16 19:20:00,39.0,17.9,29.76,NNE,22,3.2,-999.0,42,-99.99,,,0.01,Acu-Link.com,2013-04-17 02:20:00,
2013-04-16 19:35:00,37.8,17.9,29.76,WSW,247,3.2,-999.0,44,-99.99,,,0.01,Acu-Link.com,2013-04-17 02:35:00,
2013-04-16 19:50:00,37.0,18.2,29.77,SE,135,2.7,-999.0,46,-99.99,,,0.01,Acu-Link.com,2013-04-17 02:50:00,
2013-04-16 20:05:00,36.5,18.2,29.76,SSE,157,2.2,-999.0,47,-99.99,,,0.01,Acu-Link.com,2013-04-17 03:05:00,
2013-04-16 20:20:00,36.1,17.8,29.76,West,270,4.2,-999.0,47,-99.99,,,0.01,Acu-Link.com,2013-04-17 03:20:00,
2013-04-16 20:35:00,36.1,17.8,29.78,NNW,337,3.2,-999.0,47,-99.99,,,0.01,Acu-Link.com,2013-04-17 03:35:00,
2013-04-16 20:50:00,35.6,17.9,29.79,NW,315,4.2,-999.0,48,-99.99,,,0.01,Acu-Link.com,2013-04-17 03:50:00,
2013-04-16 21:05:00,35.6,17.4,29.80,NW,315,2.7,-999.0,47,-99.99,,,0.01,Acu-Link.com,2013-04-17 04:05:00,
2013-04-16 21:21:00,35.4,17.2,29.80,SW,225,2.2,-999.0,47,-99.99,,,0.01,Acu-Link.com,2013-04-17 04:21:00,
2013-04-16 21:51:00,35.2,18.4,29.82,WNW,292,6.3,-999.0,50,-99.99,,,0.01,Acu-Link.com,2013-04-17 04:51:00,
2013-04-16 22:06:00,34.7,18.9,29.81,East,90,3.7,-999.0,52,-99.99,,,0.01,Acu-Link.com,2013-04-17 05:06:00,
2013-04-16 22:21:00,34.5,20.9,29.82,NNE,22,2.7,-999.0,57,-99.99,,,0.01,Acu-Link.com,2013-04-17 05:21:00,
2013-04-16 22:36:00,34.3,21.1,29.82,SSW,202,3.2,-999.0,58,-99.99,,,0.01,Acu-Link.com,2013-04-17 05:36:00,
2013-04-16 22:51:00,34.5,22.1,29.81,NNW,337,3.2,-999.0,60,-99.99,,,0.01,Acu-Link.com,2013-04-17 05:51:00,
2013-04-16 23:06:00,34.5,22.1,29.81,West,270,5.8,-999.0,60,-99.99,,,0.01,Acu-Link.com,2013-04-17 06:06:00,
2013-04-16 23:22:00,34.7,22.3,29.80,East,90,1.1,-999.0,60,-99.99,,,0.01,Acu-Link.com,2013-04-17 06:22:00,
2013-04-16 23:37:00,34.3,21.9,29.81,North,0,0.0,-999.0,60,-99.99,,,0.01,Acu-Link.com,2013-04-17 06:37:00,
2013-04-16 23:52:00,34.7,22.3,29.82,North,0,4.2,-999.0,60,-99.99,,,0.01,Acu-Link.com,2013-04-17 06:52:00,